Regional Weather Roundup
Issued by NWS

Home | Current Version | Previous Version | Text Only | Print | Product List | Glossary Off
Versions: 1 2 3 4 5 6 7 8 9 10 11 12 13 14 15 16 17 18 19 20 21 22 23 24 25 26 27 28 29 30 31 32 33 34 35 36 37 38 39 40 41 42 43 44 45 46 47 48 49 50

246
ASUS45 KCYS 291810
RWRWY

WYOMING REGIONAL WEATHER ROUNDUP
NATIONAL WEATHER SERVICE CHEYENNE WY
1200 PM MDT MON AUG 29 2016

NOTE:  "FAIR" INDICATES FEW OR NO CLOUDS BELOW 12,000 FEET
WITH NO SIGNIFICANT WEATHER AND/OR OBSTRUCTIONS TO VISIBILITY.

WYZ001-291900-
YELLOWSTONE NATIONAL PARK

CITY           SKY/WX    TMP DP  RH WIND       PRES   REMARKS
LK YELLOWSTONE   N/A     65  36  34 SE3       30.51F
6HR MIN TEMP:  34; 6HR MAX TEMP:  66;

W YELLOWSTONE  NOT AVBL

$$
WYZ002>013-054>058-071-098>099-291900-
NORTHERN WYOMING

CITY           SKY/WX    TMP DP  RH WIND       PRES   REMARKS
JACKSON        SUNNY     68  34  28 CALM      30.41F
CODY           FAIR      72  48  43 NW5       30.34F
GREYBULL       FAIR      75  45  34 E5        30.28F
6HR MIN TEMP:  59; 6HR MAX TEMP:  76;

WORLAND        FAIR      74  44  34 E5        30.30F
6HR MIN TEMP:  52; 6HR MAX TEMP:  74;

SHERIDAN       FAIR      79  46  31 NE7       30.30F
6HR MIN TEMP:  52; 6HR MAX TEMP:  79;

BUFFALO        FAIR      78  42  27 VRB3      30.36F
6HR MIN TEMP:  59; 6HR MAX TEMP:  79;

GILLETTE       FAIR      77  49  37 VRB3      30.31S
6HR MIN TEMP:  56; 6HR MAX TEMP:  77;

HULETT         FAIR      72  50  46 E5G20     30.33F
NEWCASTLE      FAIR      79  41  25 SW5       30.29S

$$
WYZ014>020-022>026-101>103-291900-
CENTRAL WYOMING

CITY           SKY/WX    TMP DP  RH WIND       PRES   REMARKS
BIG PINEY      FAIR      75  31  19 S9        30.45F
6HR MIN TEMP:  36; 6HR MAX TEMP:  76;

PINEDALE       FAIR      75  27  16 S6        30.45F
DUBOIS         FAIR      75  25  15 SE13      30.45F
LANDER         FAIR      80  34  19 NE6       30.37S
6HR MIN TEMP:  54; 6HR MAX TEMP:  80;

RIVERTON       FAIR      76  39  26 NE6       30.36F
6HR MIN TEMP:  53; 6HR MAX TEMP:  77;

CASPER         FAIR      78  42  27 N9        30.35F
6HR MIN TEMP:  48; 6HR MAX TEMP:  78;

DOUGLAS        FAIR      81  39  22 VRB3      30.32F
6HR MIN TEMP:  49; 6HR MAX TEMP:  81;


$$
WYZ021-027>030-104>119-291900-
SOUTHERN WYOMING

CITY           SKY/WX    TMP DP  RH WIND       PRES   REMARKS
EVANSTON       FAIR      77  27  15 NE9       30.43F
6HR MIN TEMP:  52; 6HR MAX TEMP:  77;

FORT BRIDGER   FAIR      76  28  16 E8        30.46F
ROCK SPRINGS   FAIR      76  28  17 MISG      30.41F
6HR MIN TEMP:  50; 6HR MAX TEMP:  76;

DIXON          FAIR      77  38  24 SW8       30.39F
RAWLINS        FAIR      77  31  18 NE12G18   30.42F
6HR MIN TEMP:  42; 6HR MAX TEMP:  77;

SARATOGA       FAIR      72  36  26 N6        30.42F
LARAMIE        FAIR      72  36  26 VRB6      30.43F
6HR MIN TEMP:  42; 6HR MAX TEMP:  72;

CHEYENNE       FAIR      78  38  23 E8        30.36F
6HR MIN TEMP:  54; 6HR MAX TEMP:  79;

TORRINGTON     FAIR      85  45  24 S5        30.25F
6HR MIN TEMP:  52; 6HR MAX TEMP:  85;

PINE BLUFFS    FAIR      81  43  26 NE10      30.32S

$$




USA.gov is the U.S. government's official web portal to all federal, state and local government web resources and services.